WXM80 ListenWXM80 Stop

You find our weather info also at:

UK Metoffice

WeatherCloud

Weather Underground

Northeastern Weather Network

AWEKAS

Citizen Weather Observer Program (CWOP)

HAMweather, WeatherForYou, PWS Weather


Weather Underground History page Text

Daily Summary for July 5, 2016 Units:  English    Metric   Both
« Previous Day
Next Day »
Daily Weekly Monthly Yearly Custom
  High: Low: Average:
Temperature: 88.8 °F 68.6 °F 76.7 °F
Dew Point: 76.2 °F 67.2 °F 70.7 °F
Humidity: 98 % 59 % 83 %
Wind Speed: 5.4 mph 0.0 mph 0.9 mph
Wind Gust: 9.2 mph - -
Wind:- - SSW
Pressure: 29.90 in 29.72 in -
Precipitation: 0.74 in    
Historical Graphs
 
 
Tabular Data for July 5, 2016
Time Temperature Dew Point Pressure Wind Wind Speed Wind Gust Humidity Rainfall Rate (Hourly)
00:01 69.7 °F 67.3 °F 29.90 in Calm   1.2 mph 92 % 0.00 in
00:06 69.7 °F 67.3 °F 29.90 in Calm   1.0 mph 92 % 0.01 in
00:11 69.6 °F 67.2 °F 29.89 in Calm     92 % 0.01 in
00:16 69.6 °F 67.5 °F 29.89 in Calm   1.2 mph 93 % 0.02 in
00:26 69.6 °F 67.5 °F 29.88 in SSE 0.2 mph 1.0 mph 93 % 0.02 in
00:31 69.5 °F 67.4 °F 29.88 in Calm     93 % 0.01 in
00:36 69.5 °F 67.4 °F 29.88 in Calm     93 % 0.02 in
00:41 69.5 °F 67.4 °F 29.87 in Calm     93 % 0.04 in
00:46 69.4 °F 67.3 °F 29.87 in Calm     93 % 0.06 in
00:52 69.4 °F 67.3 °F 29.87 in Calm     93 % 0.07 in
00:57 69.4 °F 67.6 °F 29.86 in Calm     94 % 0.10 in
01:02 69.3 °F 67.5 °F 29.86 in Calm     94 % 0.13 in
01:07 69.3 °F 67.5 °F 29.86 in SSE 0.1 mph 1.2 mph 94 % 0.13 in
01:12 69.3 °F 67.5 °F 29.85 in Calm     94 % 0.14 in
01:17 69.3 °F 67.5 °F 29.85 in Calm     94 % 0.14 in
01:22 69.3 °F 67.5 °F 29.84 in Calm     94 % 0.15 in
01:27 69.2 °F 67.4 °F 29.84 in Calm     94 % 0.17 in
01:32 69.2 °F 67.4 °F 29.84 in ESE 0.5 mph 2.0 mph 94 % 0.18 in
01:37 69.2 °F 67.4 °F 29.83 in NE 0.5 mph 3.5 mph 94 % 0.18 in
01:43 69.2 °F 67.4 °F 29.83 in Calm     94 % 0.18 in
01:48 69.2 °F 67.4 °F 29.83 in NE 0.1 mph 1.2 mph 94 % 0.18 in
01:53 69.1 °F 67.6 °F 29.83 in Calm     95 % 0.18 in
01:58 69.0 °F 67.5 °F 29.82 in Calm     95 % 0.18 in
02:03 69.0 °F 67.5 °F 29.82 in NE 0.6 mph 2.0 mph 95 % 0.19 in
02:08 69.0 °F 67.5 °F 29.81 in Calm     95 % 0.18 in
02:13 69.0 °F 67.5 °F 29.81 in Calm     95 % 0.18 in
02:18 69.0 °F 67.5 °F 29.81 in Calm   1.2 mph 95 % 0.17 in
02:23 69.0 °F 67.5 °F 29.80 in Calm     95 % 0.17 in
02:28 69.0 °F 67.5 °F 29.80 in Calm     95 % 0.14 in
02:39 69.0 °F 67.8 °F 29.80 in Calm     96 % 0.12 in
02:44 69.0 °F 67.8 °F 29.79 in Calm     96 % 0.10 in
02:49 69.0 °F 67.8 °F 29.79 in Calm     96 % 0.09 in
02:54 69.0 °F 67.8 °F 29.79 in Calm     96 % 0.07 in
02:59 69.0 °F 67.8 °F 29.79 in NE 0.2 mph 1.2 mph 96 % 0.06 in
03:04 69.1 °F 67.9 °F 29.78 in Calm     96 % 0.04 in
03:09 69.2 °F 68.0 °F 29.78 in Calm     96 % 0.03 in
03:14 69.2 °F 68.0 °F 29.78 in Calm     96 % 0.03 in
03:19 69.2 °F 68.0 °F 29.78 in Calm     96 % 0.03 in
03:25 69.2 °F 68.0 °F 29.77 in Calm     96 % 0.03 in
03:30 69.2 °F 68.0 °F 29.77 in Calm     96 % 0.03 in
03:35 69.2 °F 68.0 °F 29.77 in Calm     96 % 0.03 in
03:40 69.2 °F 68.0 °F 29.77 in Calm     96 % 0.02 in
03:45 69.3 °F 68.1 °F 29.77 in Calm     96 % 0.02 in
03:50 69.3 °F 68.1 °F 29.77 in Calm     96 % 0.01 in
03:55 69.4 °F 68.2 °F 29.77 in NE 0.2 mph 1.0 mph 96 % 0.01 in
04:00 69.4 °F 68.2 °F 29.77 in Calm   1.2 mph 96 % 0.01 in
04:05 69.4 °F 68.2 °F 29.78 in NE 2.1 mph 3.0 mph 96 % 0.02 in
04:10 69.4 °F 68.2 °F 29.77 in NE 2.2 mph 2.3 mph 96 % 0.06 in
04:16 69.4 °F 68.2 °F 29.77 in NNE 2.0 mph 4.0 mph 96 % 0.00 in
04:21 69.3 °F 68.1 °F 29.77 in NNE 2.0 mph 4.0 mph 96 % 0.00 in
04:25 69.2 °F 68.0 °F 29.77 in NNE 1.6 mph 3.5 mph 96 % 0.09 in
04:31 69.1 °F 67.9 °F 29.77 in North 1.0 mph 2.0 mph 96 % 0.00 in
04:36 69.0 °F 67.8 °F 29.77 in Calm   3.0 mph 96 % 0.00 in
04:41 69.0 °F 67.8 °F 29.77 in NNE 1.0 mph 3.0 mph 96 % 0.00 in
04:51 68.9 °F 67.7 °F 29.77 in NNE 1.0 mph 4.0 mph 96 % 0.00 in
04:56 68.8 °F 67.6 °F 29.77 in Calm   4.0 mph 96 % 0.00 in
05:01 68.8 °F 67.6 °F 29.77 in Calm     96 % 0.14 in
05:06 68.7 °F 67.5 °F 29.77 in Calm     96 % 0.13 in
05:11 68.7 °F 67.5 °F 29.77 in Calm     96 % 0.08 in
05:16 68.7 °F 67.5 °F 29.77 in Calm     96 % 0.06 in
05:21 68.6 °F 67.4 °F 29.76 in Calm     96 % 0.06 in
05:26 68.6 °F 67.4 °F 29.76 in Calm     96 % 0.06 in
05:31 68.6 °F 67.4 °F 29.76 in Calm     96 % 0.05 in
05:32 68.6 °F 67.4 °F 29.76 in Calm     96 % 0.05 in
05:37 68.6 °F 67.4 °F 29.76 in Calm     96 % 0.04 in
05:42 68.6 °F 67.4 °F 29.76 in Calm     96 % 0.04 in
05:47 68.6 °F 67.4 °F 29.76 in Calm     96 % 0.02 in
05:52 68.6 °F 67.4 °F 29.76 in Calm     96 % 0.01 in
05:57 68.6 °F 67.4 °F 29.76 in Calm     96 % 0.01 in
06:02 68.6 °F 67.4 °F 29.76 in Calm     96 % 0.01 in
06:07 68.6 °F 67.4 °F 29.76 in Calm     96 % 0.01 in
06:13 68.6 °F 67.4 °F 29.76 in Calm     96 % 0.01 in
06:18 68.7 °F 67.5 °F 29.76 in Calm     96 % 0.02 in
06:23 68.7 °F 67.5 °F 29.76 in Calm     96 % 0.06 in
06:28 68.8 °F 67.6 °F 29.76 in Calm     96 % 0.09 in
06:33 68.8 °F 67.6 °F 29.76 in Calm     96 % 0.11 in
06:38 68.8 °F 67.6 °F 29.75 in Calm     96 % 0.11 in
06:43 68.8 °F 67.6 °F 29.75 in Calm     96 % 0.12 in
06:48 68.8 °F 67.6 °F 29.75 in Calm     96 % 0.13 in
06:54 68.9 °F 67.7 °F 29.75 in Calm     96 % 0.13 in
06:59 68.9 °F 67.7 °F 29.75 in Calm     96 % 0.14 in
07:04 69.0 °F 68.1 °F 29.75 in Calm     97 % 0.14 in
07:09 69.0 °F 68.1 °F 29.75 in Calm     97 % 0.15 in
07:14 69.1 °F 68.2 °F 29.75 in Calm     97 % 0.17 in
07:19 69.2 °F 68.3 °F 29.75 in Calm     97 % 0.16 in
07:24 69.2 °F 68.3 °F 29.75 in Calm     97 % 0.14 in
07:29 69.2 °F 68.3 °F 29.75 in Calm     97 % 0.12 in
07:34 69.3 °F 68.4 °F 29.75 in NNE 0.2 mph 1.2 mph 97 % 0.10 in
07:39 69.4 °F 68.5 °F 29.74 in NNE 0.7 mph 2.3 mph 97 % 0.09 in
07:45 69.4 °F 68.5 °F 29.75 in Calm     97 % 0.09 in
07:50 69.5 °F 68.6 °F 29.74 in NNE 0.3 mph 2.3 mph 97 % 0.08 in
07:55 69.5 °F 68.6 °F 29.74 in NNE 0.5 mph 2.3 mph 97 % 0.08 in
08:00 69.5 °F 68.6 °F 29.75 in NNE 0.1 mph 1.0 mph 97 % 0.07 in
08:05 69.5 °F 68.6 °F 29.74 in NNE 1.2 mph 3.5 mph 97 % 0.07 in
08:10 69.6 °F 68.7 °F 29.74 in Calm     97 % 0.06 in
08:15 69.6 °F 68.7 °F 29.75 in NNE 0.1 mph 2.3 mph 97 % 0.05 in
08:20 69.7 °F 68.8 °F 29.74 in NNE 0.5 mph 2.3 mph 97 % 0.03 in
08:26 69.8 °F 68.9 °F 29.74 in Calm   2.0 mph 97 % 0.00 in
08:31 69.9 °F 69.0 °F 29.74 in Calm   1.0 mph 97 % 0.00 in
08:36 70.0 °F 69.1 °F 29.74 in NNE 1.0 mph 3.0 mph 97 % 0.00 in
08:41 70.1 °F 69.2 °F 29.74 in NNE 1.0 mph 4.0 mph 97 % 0.00 in
08:46 70.0 °F 69.1 °F 29.74 in NNE 1.0 mph 3.0 mph 97 % 0.00 in
08:51 70.1 °F 69.2 °F 29.74 in NNE 1.0 mph 3.0 mph 97 % 0.00 in
08:56 70.4 °F 69.5 °F 29.74 in NNE 1.0 mph 4.0 mph 97 % 0.00 in
09:01 70.5 °F 69.6 °F 29.74 in NNE 0.1 mph 1.2 mph 97 % 0.01 in
09:06 70.6 °F 69.7 °F 29.74 in NNE 0.8 mph 2.3 mph 97 % 0.00 in
09:11 70.6 °F 69.7 °F 29.74 in Calm     97 % 0.00 in
09:21 70.7 °F 69.8 °F 29.74 in NNE 0.1 mph 1.2 mph 97 % 0.00 in
09:26 70.9 °F 70.0 °F 29.74 in Calm     97 % 0.00 in
09:31 70.9 °F 70.0 °F 29.74 in Calm     97 % 0.00 in
09:36 71.0 °F 70.1 °F 29.74 in Calm     97 % 0.00 in
09:41 71.1 °F 70.2 °F 29.74 in NNE 1.3 mph 3.5 mph 97 % 0.00 in
09:47 71.2 °F 70.3 °F 29.75 in Calm   1.2 mph 97 % 0.00 in
09:52 71.3 °F 70.4 °F 29.74 in Calm     97 % 0.00 in
09:57 71.4 °F 70.5 °F 29.74 in Calm     97 % 0.00 in
10:02 71.4 °F 70.5 °F 29.73 in Calm   1.0 mph 97 % 0.00 in
10:07 71.6 °F 70.7 °F 29.73 in Calm     97 % 0.00 in
10:12 72.1 °F 71.2 °F 29.73 in Calm     97 % 0.00 in
10:17 72.4 °F 71.8 °F 29.73 in NNE 0.6 mph 2.3 mph 98 % 0.00 in
10:22 72.7 °F 71.8 °F 29.74 in NNE 0.4 mph 3.5 mph 97 % 0.00 in
10:27 72.8 °F 71.9 °F 29.74 in NNE 0.1 mph 1.2 mph 97 % 0.00 in
10:32 72.8 °F 71.9 °F 29.74 in WNW 0.3 mph 2.3 mph 97 % 0.00 in
10:38 72.9 °F 71.7 °F 29.74 in Calm   1.2 mph 96 % 0.00 in
10:43 73.1 °F 72.2 °F 29.74 in NNE 0.7 mph 2.3 mph 97 % 0.00 in
10:48 73.3 °F 72.1 °F 29.74 in North 0.1 mph 1.2 mph 96 % 0.00 in
10:53 73.5 °F 72.3 °F 29.74 in WSW 1.6 mph 3.5 mph 96 % 0.00 in
10:58 73.5 °F 72.0 °F 29.74 in WNW 0.6 mph 2.3 mph 95 % 0.00 in
11:03 73.8 °F 72.3 °F 29.74 in NW 2.6 mph 4.0 mph 95 % 0.00 in
11:08 74.0 °F 72.2 °F 29.75 in NW 0.5 mph 1.2 mph 94 % 0.00 in
11:13 74.7 °F 73.2 °F 29.75 in NNW 1.8 mph 3.5 mph 95 % 0.00 in
11:18 75.2 °F 73.4 °F 29.75 in WNW 1.7 mph 3.0 mph 94 % 0.00 in
11:23 75.5 °F 73.3 °F 29.75 in WNW 1.2 mph 3.5 mph 93 % 0.00 in
11:29 76.0 °F 73.8 °F 29.74 in WNW 0.6 mph 2.3 mph 93 % 0.00 in
11:34 76.8 °F 74.9 °F 29.74 in WNW 0.7 mph 3.0 mph 94 % 0.00 in
11:39 77.3 °F 73.8 °F 29.74 in WNW 1.6 mph 3.5 mph 89 % 0.00 in
11:44 77.8 °F 73.6 °F 29.74 in West 4.1 mph 5.8 mph 87 % 0.00 in
11:49 78.1 °F 73.6 °F 29.74 in North 0.6 mph 3.5 mph 86 % 0.00 in
11:54 78.3 °F 73.8 °F 29.74 in WNW 2.1 mph 3.5 mph 86 % 0.00 in
11:59 78.5 °F 74.6 °F 29.74 in North 2.3 mph 2.3 mph 88 % 0.00 in
12:04 78.9 °F 74.4 °F 29.73 in SSW 0.7 mph 3.0 mph 86 % 0.00 in
12:09 79.3 °F 74.0 °F 29.74 in SW 1.0 mph 5.8 mph 84 % 0.00 in
12:14 79.7 °F 75.1 °F 29.73 in WNW 1.7 mph 2.3 mph 86 % 0.00 in
12:20 80.1 °F 74.8 °F 29.74 in NW 2.0 mph 7.0 mph 84 % 0.00 in
12:25 80.7 °F 76.1 °F 29.74 in SW 1.0 mph 4.6 mph 86 % 0.00 in
12:30 81.0 °F 75.3 °F 29.74 in WNW 2.3 mph 5.8 mph 83 % 0.00 in
12:35 81.5 °F 75.8 °F 29.74 in WNW 1.7 mph 6.9 mph 83 % 0.00 in
12:40 82.0 °F 75.6 °F 29.75 in NNW 0.8 mph 2.3 mph 81 % 0.00 in
12:45 82.1 °F 75.3 °F 29.75 in SW 1.4 mph 3.5 mph 80 % 0.00 in
12:50 82.3 °F 74.4 °F 29.75 in WNW 3.9 mph 6.0 mph 77 % 0.00 in
12:55 82.6 °F 75.8 °F 29.75 in NW 2.0 mph 4.6 mph 80 % 0.00 in
13:00 82.8 °F 74.8 °F 29.75 in WNW 5.1 mph 5.1 mph 77 % 0.00 in
13:05 82.9 °F 74.2 °F 29.74 in WSW 5.4 mph 9.2 mph 75 % 0.00 in
13:11 83.5 °F 75.9 °F 29.74 in WSW 3.0 mph 8.0 mph 78 % 0.00 in
13:16 83.8 °F 74.6 °F 29.74 in SW 1.8 mph 3.5 mph 74 % 0.00 in
13:21 83.7 °F 74.5 °F 29.74 in NNE 4.2 mph 5.0 mph 74 % 0.00 in
13:26 83.5 °F 74.3 °F 29.74 in SSW 1.5 mph 3.5 mph 74 % 0.00 in
13:31 83.3 °F 74.5 °F 29.74 in West 0.6 mph 4.6 mph 75 % 0.00 in
13:36 83.1 °F 73.1 °F 29.74 in NW 2.7 mph 4.6 mph 72 % 0.00 in
13:41 82.8 °F 73.7 °F 29.74 in NW 1.4 mph 4.6 mph 74 % 0.00 in
13:46 82.4 °F 73.3 °F 29.74 in WSW 4.7 mph 8.0 mph 74 % 0.00 in
13:51 82.1 °F 73.8 °F 29.74 in SW 1.3 mph 5.8 mph 76 % 0.00 in
13:56 82.4 °F 74.5 °F 29.74 in NNW 1.0 mph 3.5 mph 77 % 0.00 in
14:01 82.7 °F 74.4 °F 29.74 in NW 2.0 mph 5.0 mph 76 % 0.00 in
14:06 83.2 °F 75.6 °F 29.73 in North 0.6 mph 3.5 mph 78 % 0.00 in
14:11 83.8 °F 76.2 °F 29.74 in NNW 1.0 mph 2.3 mph 78 % 0.00 in
14:17 84.3 °F 73.4 °F 29.74 in WNW 4.4 mph 8.1 mph 70 % 0.00 in
14:22 84.4 °F 74.4 °F 29.74 in West 2.9 mph 5.0 mph 72 % 0.00 in
14:27 84.5 °F 75.3 °F 29.74 in NNW 0.5 mph 3.5 mph 74 % 0.00 in
14:32 84.6 °F 75.0 °F 29.74 in NNW 1.1 mph 3.5 mph 73 % 0.00 in
14:37 84.5 °F 74.1 °F 29.74 in NNE 2.2 mph 4.6 mph 71 % 0.00 in
14:42 84.1 °F 73.3 °F 29.73 in Calm   1.2 mph 70 % 0.00 in
14:47 84.0 °F 73.2 °F 29.73 in NW 2.3 mph 3.5 mph 70 % 0.00 in
14:53 84.1 °F 73.7 °F 29.73 in SSW 1.7 mph 4.6 mph 71 % 0.00 in
14:58 84.3 °F 73.4 °F 29.73 in West 3.0 mph 4.6 mph 70 % 0.00 in
15:03 84.4 °F 73.5 °F 29.73 in WSW 2.9 mph 3.5 mph 70 % 0.00 in
15:08 84.5 °F 72.8 °F 29.73 in SW 3.0 mph 5.8 mph 68 % 0.00 in
15:13 84.6 °F 72.9 °F 29.73 in NNE 2.3 mph 5.0 mph 68 % 0.00 in
15:18 85.0 °F 74.1 °F 29.74 in WNW 1.6 mph 3.5 mph 70 % 0.00 in
15:23 85.3 °F 73.5 °F 29.74 in WNW 2.1 mph 3.5 mph 68 % 0.00 in
15:28 85.8 °F 74.9 °F 29.74 in SW 2.1 mph 5.0 mph 70 % 0.00 in
15:33 86.1 °F 74.7 °F 29.74 in West 0.9 mph 3.5 mph 69 % 0.00 in
15:39 86.5 °F 73.8 °F 29.74 in West 2.5 mph 3.5 mph 66 % 0.00 in
15:44 86.8 °F 73.6 °F 29.74 in WNW 2.2 mph 3.5 mph 65 % 0.00 in
15:49 87.1 °F 73.9 °F 29.74 in WSW 2.0 mph 4.6 mph 65 % 0.00 in
15:54 87.4 °F 73.7 °F 29.74 in WNW 2.1 mph 6.0 mph 64 % 0.00 in
15:59 87.7 °F 74.5 °F 29.73 in NW 1.4 mph 4.0 mph 65 % 0.00 in
16:04 87.9 °F 74.7 °F 29.74 in WNW 0.7 mph 3.5 mph 65 % 0.00 in
16:09 88.0 °F 73.8 °F 29.73 in NW 1.8 mph 3.5 mph 63 % 0.00 in
16:14 88.1 °F 72.5 °F 29.73 in West 5.4 mph 6.9 mph 60 % 0.00 in
16:19 88.1 °F 73.0 °F 29.73 in NNW 2.7 mph 4.6 mph 61 % 0.00 in
16:24 88.4 °F 74.2 °F 29.73 in West 0.1 mph 2.3 mph 63 % 0.00 in
16:29 88.5 °F 73.8 °F 29.73 in Calm   3.5 mph 62 % 0.00 in
16:40 88.8 °F 72.6 °F 29.73 in WSW 4.1 mph 6.9 mph 59 % 0.00 in
16:45 88.7 °F 73.5 °F 29.72 in SW 0.9 mph 3.5 mph 61 % 0.00 in
16:50 88.8 °F 73.1 °F 29.72 in WSW 0.7 mph 3.0 mph 60 % 0.00 in
16:55 88.8 °F 73.1 °F 29.72 in WSW 3.4 mph 6.9 mph 60 % 0.00 in
17:00 88.7 °F 73.0 °F 29.72 in SW 2.2 mph 4.6 mph 60 % 0.00 in
17:05 88.7 °F 73.0 °F 29.72 in SW 0.4 mph 3.5 mph 60 % 0.00 in
17:10 88.8 °F 73.1 °F 29.72 in SW 3.9 mph 6.9 mph 60 % 0.00 in
17:15 88.7 °F 73.0 °F 29.72 in WSW 2.8 mph 4.6 mph 60 % 0.00 in
17:21 88.5 °F 72.3 °F 29.72 in WNW 3.3 mph 5.8 mph 59 % 0.00 in
17:26 88.4 °F 72.7 °F 29.72 in WSW 2.0 mph 4.0 mph 60 % 0.00 in
17:31 88.2 °F 72.6 °F 29.72 in West 1.0 mph 6.0 mph 60 % 0.00 in
17:36 88.0 °F 72.4 °F 29.72 in WSW 1.9 mph 5.0 mph 60 % 0.00 in
17:41 87.7 °F 72.1 °F 29.72 in WSW 1.0 mph 4.0 mph 60 % 0.00 in
17:46 87.6 °F 72.5 °F 29.72 in West 3.0 mph 5.0 mph 61 % 0.00 in
17:51 87.4 °F 72.3 °F 29.72 in WSW 2.6 mph 4.6 mph 61 % 0.00 in
17:56 87.2 °F 72.1 °F 29.72 in West 5.0 mph 8.0 mph 61 % 0.00 in
18:01 87.0 °F 71.9 °F 29.72 in SW 1.2 mph 3.5 mph 61 % 0.00 in
18:06 86.9 °F 71.8 °F 29.72 in West 1.4 mph 6.9 mph 61 % 0.00 in
18:11 86.8 °F 72.2 °F 29.72 in SSW 1.6 mph 4.6 mph 62 % 0.00 in
18:16 86.6 °F 72.0 °F 29.72 in South 2.6 mph 4.6 mph 62 % 0.00 in
18:21 86.5 °F 71.9 °F 29.72 in WSW 4.0 mph 5.8 mph 62 % 0.00 in
18:26 86.3 °F 72.2 °F 29.72 in West 2.5 mph 4.0 mph 63 % 0.00 in
18:31 86.2 °F 72.1 °F 29.72 in WNW 1.8 mph 4.6 mph 63 % 0.00 in
18:37 86.2 °F 72.6 °F 29.72 in WNW 1.9 mph 4.0 mph 64 % 0.00 in
18:42 86.1 °F 72.0 °F 29.72 in West 1.2 mph 4.6 mph 63 % 0.00 in
18:47 86.0 °F 71.9 °F 29.72 in WSW 1.3 mph 3.5 mph 63 % 0.00 in
18:52 86.0 °F 72.4 °F 29.72 in WSW 2.2 mph 4.0 mph 64 % 0.00 in
18:57 85.9 °F 72.3 °F 29.73 in WSW 1.5 mph 3.5 mph 64 % 0.00 in
19:02 85.8 °F 71.7 °F 29.73 in WSW 2.0 mph 3.5 mph 63 % 0.00 in
19:07 85.7 °F 71.7 °F 29.73 in WSW 2.4 mph 5.0 mph 63 % 0.00 in
19:12 85.6 °F 72.0 °F 29.73 in WSW 2.9 mph 3.5 mph 64 % 0.00 in
19:17 85.5 °F 71.9 °F 29.73 in SW 0.6 mph 2.3 mph 64 % 0.00 in
19:22 85.5 °F 71.9 °F 29.73 in West 2.0 mph 4.6 mph 64 % 0.00 in
19:27 85.5 °F 71.9 °F 29.74 in WSW 0.4 mph 1.2 mph 64 % 0.00 in
19:33 85.5 °F 72.4 °F 29.73 in WSW 0.2 mph 1.2 mph 65 % 0.00 in
19:38 85.4 °F 72.3 °F 29.73 in Calm   1.2 mph 65 % 0.00 in
19:43 85.3 °F 72.6 °F 29.73 in Calm     66 % 0.00 in
19:48 85.1 °F 72.5 °F 29.73 in West 0.4 mph 2.0 mph 66 % 0.00 in
19:53 84.9 °F 71.8 °F 29.73 in West 0.9 mph 2.3 mph 65 % 0.00 in
19:58 84.8 °F 72.2 °F 29.73 in West 0.3 mph 1.2 mph 66 % 0.00 in
20:03 84.6 °F 72.4 °F 29.73 in West 0.2 mph 1.2 mph 67 % 0.00 in
20:08 84.3 °F 72.6 °F 29.74 in West 0.2 mph 1.2 mph 68 % 0.00 in
20:13 84.0 °F 73.2 °F 29.74 in West 0.1 mph 1.2 mph 70 % 0.00 in
20:18 83.7 °F 73.3 °F 29.74 in West 0.1 mph 1.2 mph 71 % 0.00 in
20:24 83.4 °F 73.0 °F 29.74 in West 0.5 mph 1.2 mph 71 % 0.00 in
20:34 82.7 °F 72.7 °F 29.75 in West 0.6 mph 1.2 mph 72 % 0.00 in
20:39 82.3 °F 72.8 °F 29.75 in West 0.5 mph 1.2 mph 73 % 0.00 in
20:44 81.9 °F 72.8 °F 29.74 in West 0.3 mph 1.2 mph 74 % 0.00 in
20:49 81.5 °F 72.8 °F 29.74 in West 0.2 mph 1.2 mph 75 % 0.00 in
20:54 81.1 °F 72.4 °F 29.75 in Calm     75 % 0.00 in
20:59 80.8 °F 72.1 °F 29.75 in Calm     75 % 0.00 in
21:04 80.5 °F 71.8 °F 29.75 in Calm   1.2 mph 75 % 0.00 in
21:09 80.2 °F 71.6 °F 29.75 in Calm     75 % 0.00 in
21:15 79.9 °F 71.3 °F 29.75 in Calm   1.2 mph 75 % 0.00 in
21:20 79.7 °F 71.5 °F 29.76 in West 0.5 mph 1.2 mph 76 % 0.00 in
21:25 79.4 °F 71.6 °F 29.76 in Calm   1.2 mph 77 % 0.00 in
21:30 79.2 °F 71.4 °F 29.76 in Calm   1.0 mph 77 % 0.00 in
21:35 78.9 °F 71.1 °F 29.77 in Calm     77 % 0.00 in
21:40 78.7 °F 70.9 °F 29.76 in Calm     77 % 0.00 in
21:45 78.6 °F 71.2 °F 29.77 in Calm     78 % 0.00 in
21:50 78.4 °F 71.0 °F 29.77 in Calm     78 % 0.00 in
21:55 78.2 °F 70.4 °F 29.77 in West 0.1 mph 1.2 mph 77 % 0.00 in
22:01 78.0 °F 70.6 °F 29.77 in Calm     78 % 0.00 in
22:06 77.9 °F 70.1 °F 29.77 in Calm     77 % 0.00 in
22:11 77.7 °F 69.9 °F 29.77 in Calm     77 % 0.00 in
22:16 77.6 °F 69.8 °F 29.77 in Calm     77 % 0.00 in
22:21 77.5 °F 69.7 °F 29.77 in Calm   2.3 mph 77 % 0.00 in
22:26 77.5 °F 69.7 °F 29.77 in SW 0.8 mph 3.5 mph 77 % 0.00 in
22:31 77.4 °F 69.6 °F 29.77 in SW 0.7 mph 2.0 mph 77 % 0.00 in
22:36 77.4 °F 69.6 °F 29.77 in SW 0.1 mph 1.2 mph 77 % 0.00 in
22:41 77.4 °F 70.0 °F 29.77 in SW 0.2 mph 1.2 mph 78 % 0.00 in
22:46 77.4 °F 70.0 °F 29.77 in SW 0.2 mph 1.2 mph 78 % 0.00 in
22:52 77.4 °F 70.0 °F 29.77 in SW 0.9 mph 1.2 mph 78 % 0.00 in
22:57 77.4 °F 70.0 °F 29.78 in Calm     78 % 0.00 in
23:02 77.4 °F 69.6 °F 29.78 in Calm     77 % 0.00 in
23:07 77.4 °F 69.6 °F 29.78 in SW 0.2 mph 1.2 mph 77 % 0.00 in
23:12 77.4 °F 70.0 °F 29.78 in SW 0.1 mph 1.2 mph 78 % 0.00 in
23:17 77.4 °F 70.0 °F 29.78 in SW 0.6 mph 2.3 mph 78 % 0.00 in
23:22 77.4 °F 70.0 °F 29.78 in SW 0.1 mph 1.2 mph 78 % 0.00 in
23:27 77.4 °F 70.0 °F 29.78 in WSW 0.5 mph 2.3 mph 78 % 0.00 in
23:32 77.5 °F 70.1 °F 29.78 in SW 0.3 mph 2.0 mph 78 % 0.00 in
23:38 77.5 °F 70.1 °F 29.78 in West 0.6 mph 2.3 mph 78 % 0.00 in
23:43 77.5 °F 70.1 °F 29.79 in SSW 0.8 mph 2.3 mph 78 % 0.00 in
23:48 77.6 °F 70.2 °F 29.79 in SSW 0.1 mph 2.3 mph 78 % 0.00 in
23:53 77.6 °F 70.2 °F 29.79 in WSW 1.4 mph 4.0 mph 78 % 0.00 in
23:58 77.6 °F 70.2 °F 29.79 in West 1.7 mph 4.0 mph 78 % 0.00 in
Crab Meadow Weather
Compliments of Weather Underground - 3 mb

Script developed by  Jim McMurry - jmcmurry@mwt.net Adapted for the template by  Wim van der Kuil - Leuven-Template.eu

Astronomy: The gravity on Jupiter is 2.6 times that of the Earth.